CZ-6A DEB

Satellite information

Favourite Embed

Satellite Type and Status

DEBRISIN ORBIT

Key statistics

Satellite CZ-6A DEB at a glance.

Uptime

495

Days in orbit

Revolutions

≈ 14.3

Per day

Orbit

LEO

Low Earth Orbit

Inclination

89.0

Latest

Satellite identification and parameters

Extended collection of information and parameters for CZ-6A DEB.

Object identification

Identified? True

Debris? True

Object name: CZ-6A DEB

International designator: 2024-140GT

Object number (NORAD): 60816

Object ID (CCSDS): 60816

Country: PEOPLES REPUBLIC OF CHINA (PRC)

Current information (Y/N): Y

RCS size: SMALL

Orbital parameters

Period: 100.695 minutes

Inclination: 89.0474 deg

SMA: 7169.677 km

Apoapsis: 803.145 km

Periapsis: 779.938 km

RAAN: 297.5829 deg

Eccentricy: 0.00161846

Argument of periapsis: 85.216 deg

Mean anomaly: 275.0883 deg

Mean motion: 14.30057238 rev/day

Mean motion (dot): 0.00005978 rev/day2

B* drag term: 0.0023066741 1/REarth

Two-line elements (TLE)

Creation date: Dec. 13, 2025, 5:47 p.m.

Reference frame: TEME

Reference center: EARTH

Epoch: Dec. 13, 2025, 7:24 a.m. UTC

TLE line 0: 0 CZ-6A DEB

TLE line 1: 1 60816U 24140GT 25347.30897109 .00005978 00000-0 23067-2 0 9999

TLE line 2: 2 60816 89.0474 297.5829 0016185 85.2160 275.0883 14.30057238 69641

Live tracking on map

Real-time ground track for satellite CZ-6A DEB.

In-orbit conjunctions

A list of the most updated potential collisions computed for object CZ-6A DEB.

Target Orbit TCA Probability of collision Miss distance Type
CZ-6A DEB LEO 2025-10-27 07:58:28 0.000133894 121.0 (m) DEBRIS
COSMOS 1954 LEO 2025-09-18 17:22:26 0.01052948 32.0 (m) PAYLOAD
FENGYUN 1C DEB SSO 2025-02-18 05:22:18 0.0002008153 304.0 (m) DEBRIS
SHIYAN 20A DEB LEO 2025-01-07 14:31:42 0.00082877 201.0 (m) DEBRIS
FENGYUN 1C DEB SSO 2024-12-04 04:58:56 0.0001946985 169.0 (m) DEBRIS

Associated space launch

18 Low Earth Orbit communication satellites with Ku, Q and V band payloads for the G60 constellation operated by Shanghai Spacecom Satellite Technology (SSST) with funding backed by the Shanghai local government. Initial constellation will consist of 1296 satellites by 2027 with long term plans to expand it to 12000 satellites.

CZ-6A DEB was lifted into orbit during the mission ‘Long March 6A | G60 Polar Group 01’, on board a Long March 6A space rocket.

The launch took place on Aug. 6, 2024, 6:42 a.m. from Launch Complex 9A.

For more information about the launch, click the button.

Launch to space Long March 6A | G60 Polar Group 01
Long March 6A | G60 Polar Group 01

Agency: N/A

Status: Launch Successful

Launch date: Aug. 6, 2024, 6:42 a.m. UTC

Rocket: Long March 6A

Launch pad: Launch Complex 9A

Location: Taiyuan Satellite Launch Center, People's Republic of China

...

Latest news about this satellite

News about space launch
Brightness of first Chinese broadband constellation satellites alarms astronomers

The first satellites of a Chinese broadband constellation are significantly brighter than those of Western systems, posing a new challenge for astronomers.

News about space launch
Chinese rocket stage breaks up into cloud of more than 700 pieces of space debris

HELSINKI — A Chinese Long March 6A rocket’s upper stage has fragmented into a cloud of over 700 pieces of space debris, adding to concerns about long-term orbital safety. China […]

News about space launch
China's Thousand Sails Megaconstellation Kicks Off with Dangerous Debris Field

China's Thousand Sails Megaconstellation Kicks Off with Dangerous Debris Field


Newsletter sign-up

Weekly statistics, charts and insights to help you stay on top of the space industry.